Home > Weather > New Haven > Past weeks

Flag for USA Weather for the Past 2 Weeks in New Haven, Connecticut, USA

Now
54 °F

Overcast.


Feels Like: 50 °F
Forecast: 43 / 55 °F
Wind: 14 mph from Northeast

Location: Tweed-New Haven Airport

Current Time: May 5, 2016 at 2:42:18 PM

Latest Report: May 5, 2016 at 1:53 PM


Visibility: 10 mi

Pressure: 29.67 "Hg

Humidity: 67%

Dew Point: 43 °F

Location of New HavenLocation

Historic Weather in New Haven — Graph

°F

New Haven Temperature Yesterday

Maximum temperature yesterday: 53 °F (at 2:53 PM)
Minimum temperature yesterday: 46 °F (at 8:53 PM)
Average temperature yesterday: 49 °F

High & Low Weather Summary for the Past Weeks

 TemperatureHumidityPressure
High72 °F (Apr 22, 2:53 PM)100% (Apr 21, 6:53 AM)30.27 "Hg (Apr 21, 6:53 AM)
Low37 °F (Apr 27, 5:53 AM)17% (Apr 20, 12:53 PM)29.68 "Hg (May 5, 12:53 PM)
Average51 °F71%29.97 "Hg
* Reported Apr 20 12:53 PM — May 5 12:53 PM, New Haven, Weather by CustomWeather, © 2016

Note: Actual official high and low records may vary slightly from our data, if they occured in-between our weather recording intervals... More about our weather records

Advertising

New Haven Weather History for the Previous 24 Hours

Scroll right to see more
 ConditionsComfort  
Time TempWeatherWind HumidityBarometerVisibility
12:53 PM
Thu, May 5
54 °FOvercast.17 mph67%29.68 "Hg10 mi
11:53 AM53 °FOvercast.15 mph69%29.69 "Hg10 mi
10:53 AM51 °FOvercast.15 mph71%29.70 "Hg10 mi
9:53 AM49 °FOvercast.13 mph74%29.71 "Hg10 mi
8:53 AM47 °FOvercast.15 mph80%29.72 "Hg10 mi
7:53 AM46 °FOvercast.14 mph83%29.70 "Hg10 mi
6:53 AM46 °FOvercast.12 mph79%29.70 "Hg10 mi
5:53 AM45 °FOvercast.13 mph82%29.69 "Hg10 mi
4:53 AM46 °FMostly cloudy.14 mph79%29.70 "Hg10 mi
3:53 AM46 °FOvercast.14 mph79%29.69 "Hg10 mi
2:53 AM45 °FOvercast.10 mph86%29.72 "Hg10 mi
1:53 AM46 °FOvercast.13 mph86%29.73 "Hg10 mi
12:53 AM46 °FOvercast.10 mph86%29.75 "Hg10 mi
11:53 PM
Wed, May 4
46 °FOvercast.15 mph86%29.75 "Hg10 mi
10:53 PM47 °FOvercast.8 mph86%29.75 "Hg10 mi
9:53 PM47 °FOvercast.3 mph90%29.78 "Hg10 mi
8:53 PM46 °FMostly cloudy.8 mph89%29.76 "Hg10 mi
7:53 PM47 °FRain. Mostly cloudy.8 mph86%29.76 "Hg7 mi
6:53 PM48 °FLight rain. Cloudy.15 mph86%29.72 "Hg10 mi
5:53 PM50 °FLight rain. Overcast.7 mph83%29.74 "Hg10 mi
4:53 PM51 °FLight rain. Overcast.13 mph77%29.74 "Hg10 mi
3:53 PM52 °FOvercast.12 mph72%29.74 "Hg10 mi
2:53 PM53 °FOvercast.8 mph72%29.74 "Hg10 mi
Weather by CustomWeather, © 2016

See weather overviewHow to use our weather pages